Time,TemperatureF,DewpointF,PressureIn,WindDirection,WindDirectionDegrees,WindSpeedMPH,WindSpeedGustMPH,Humidity,HourlyPrecipIn,Conditions,Clouds,dailyrainin,SoftwareType,DateUTC
2013-03-19 00:00:00,40.7,40.7,29.84,SE,130,0.0,6.0,100,0.04,,,0.00,WeatherDisplay:10.37,2013-03-19 04:00:00,
2013-03-19 00:23:00,40.9,40.9,29.82,SE,145,0.0,6.0,100,0.00,,,0.00,WeatherDisplay:10.37,2013-03-19 04:23:00,
2013-03-19 01:00:00,41.2,41.2,29.86,NW,319,0.0,8.0,100,0.01,,,0.01,WeatherDisplay:10.37,2013-03-19 05:00:00,
2013-03-19 02:00:00,41.0,41.0,29.86,NW,311,0.0,4.0,100,0.00,,,0.01,WeatherDisplay:10.37,2013-03-19 06:00:00,
2013-03-19 03:00:00,41.0,41.0,29.82,NNW,337,0.0,1.0,100,0.00,,,0.01,WeatherDisplay:10.37,2013-03-19 07:00:00,
2013-03-19 04:00:00,40.7,40.7,29.82,NNW,337,0.0,2.0,100,0.00,,,0.01,WeatherDisplay:10.37,2013-03-19 08:00:00,
2013-03-19 05:00:00,40.3,40.3,29.82,NW,318,0.0,5.0,100,0.00,,,0.01,WeatherDisplay:10.37,2013-03-19 09:00:00,
2013-03-19 06:00:00,40.3,40.3,29.82,WNW,288,0.0,3.0,100,0.00,,,0.01,WeatherDisplay:10.37,2013-03-19 10:00:00,
2013-03-19 07:00:00,40.6,40.6,29.82,WSW,237,0.0,2.0,100,0.00,,,0.01,WeatherDisplay:10.37,2013-03-19 11:00:00,
2013-03-19 08:00:00,41.2,41.2,29.82,WSW,258,0.0,3.0,100,0.00,,,0.01,WeatherDisplay:10.37,2013-03-19 12:00:00,
2013-03-19 09:00:00,43.0,43.0,29.87,WNW,290,0.0,7.0,100,0.00,,,0.01,WeatherDisplay:10.37,2013-03-19 13:00:00,
2013-03-19 10:00:00,45.3,45.3,29.88,WNW,291,0.0,9.0,100,0.00,,,0.01,WeatherDisplay:10.37,2013-03-19 14:00:00,
2013-03-19 11:00:00,52.4,52.4,29.88,NW,315,3.0,8.0,100,0.00,CLR,,0.01,WeatherDisplay:10.37,2013-03-19 15:00:00,
2013-03-19 12:00:00,58.2,58.2,29.87,West,272,2.0,12.0,100,0.00,CLR,,0.01,WeatherDisplay:10.37,2013-03-19 16:00:00,
2013-03-19 13:00:00,62.0,62.0,29.85,NW,321,2.0,14.0,100,0.00,CLR,,0.01,WeatherDisplay:10.37,2013-03-19 17:00:00,
2013-03-19 14:00:00,64.5,58.5,29.83,WNW,285,5.0,16.0,81,0.00,CLR,,0.01,WeatherDisplay:10.37,2013-03-19 18:00:00,
2013-03-19 15:00:00,66.4,39.3,29.82,West,270,1.0,14.0,37,0.00,CLR,,0.01,WeatherDisplay:10.37,2013-03-19 19:00:00,
2013-03-19 16:00:00,67.2,42.0,29.82,NW,308,3.0,16.0,40,0.00,CLR,,0.01,WeatherDisplay:10.37,2013-03-19 20:00:00,
2013-03-19 17:00:00,66.3,42.5,29.83,WNW,291,7.0,20.0,42,0.00,CLR,,0.01,WeatherDisplay:10.37,2013-03-19 21:00:00,
2013-03-19 18:00:00,64.2,40.0,29.83,WNW,291,2.0,15.0,41,0.00,CLR,,0.01,WeatherDisplay:10.37,2013-03-19 22:00:00,
2013-03-19 19:00:00,61.6,38.9,29.86,West,280,5.0,20.0,43,0.00,CLR,,0.01,WeatherDisplay:10.37,2013-03-19 23:00:00,
2013-03-19 20:00:00,58.2,35.2,29.88,NW,312,1.0,12.0,42,0.00,CLR,,0.01,WeatherDisplay:10.37,2013-03-20 00:00:00,
2013-03-19 21:00:00,55.6,31.6,29.92,WNW,295,1.0,9.0,40,0.00,CLR,,0.01,WeatherDisplay:10.37,2013-03-20 01:00:00,
2013-03-19 22:00:00,54.0,28.9,29.96,NW,317,0.0,12.0,38,0.00,CLR,,0.01,WeatherDisplay:10.37,2013-03-20 02:00:00,
2013-03-19 23:00:00,51.8,30.0,29.98,WNW,284,3.0,9.0,43,0.00,CLR,,0.01,WeatherDisplay:10.37,2013-03-20 03:00:00,